Weather History for KAUH - November, 2011

Change the Weather History Date:

Sunday, November 13, 2011

  Actual Average Record
Temperature  
Mean Temperature 48 °F -  
Max Temperature 55 °F 48 °F 80 °F (1999)
Min Temperature 41 °F 27 °F -1 °F (1986)
Degree Days  
Heating Degree Days 17    
Moisture  
Dew Point 29 °F    
Average Humidity 48    
Maximum Humidity 72    
Minimum Humidity 27    
Precipitation  
Precipitation 0.00 in - - ()
Sea Level Pressure  
Sea Level Pressure 29.45 in    
Wind  
Wind Speed 14 mph (WNW)    
Max Wind Speed 30 mph    
Max Gust Speed 43 mph    
Visibility 10 miles    
Events      
Averages and records for this station are not official NWS values.
T = Trace of Precipitation, MM = Missing Value Source: NWS Daily Summary

Daily Weather History Graph

Daily Weather History Graph

Search for Another Location

Airport or City:

Trip Planner

Search our weather history database for the weather conditions in past years. The results will help you decide how hot, cold, wet, or windy it might be!

Date:

Astronomy

Nov. 13, 2011 Rise Set
Actual Time 7:16 AM CST 5:15 PM CST
Civil Twilight 6:47 AM CST 5:44 PM CST
Nautical Twilight 6:14 AM CST 6:17 PM CST
Astronomical Twilight 5:41 AM CST 6:50 PM CST
Moon 7:24 PM CST (11/13) 9:51 AM CST (11/13)
Length of Visible Light 10h 57m
Length of Day
9h 58m
Waning Gibbous, 92% of the Moon is Illuminated
Nov 13
Waning Gibbous
Nov 18
Last Quarter
Nov 25
New
Dec 2
First Quarter
Dec 10
Full

Hourly Weather History & Observations

Time (CST) Temp. Windchill Dew Point Humidity Pressure Visibility Wind Dir Wind Speed Gust Speed Precip Events Conditions
12:15 AM 47.3 °F - 32.0 °F 55% 29.29 in 10.0 mi WSW 6.9 mph - N/A   Clear
12:35 AM 46.2 °F 41.7 °F 32.0 °F 58% 29.29 in 10.0 mi WNW 9.2 mph - N/A   Clear
12:55 AM 44.1 °F 39.0 °F 32.0 °F 63% 29.29 in 10.0 mi West 9.2 mph - N/A   Clear
1:15 AM 42.8 °F 37.5 °F 31.3 °F 64% 29.29 in 10.0 mi WNW 9.2 mph - N/A   Clear
1:35 AM 41.9 °F 35.9 °F 31.3 °F 66% 29.30 in 10.0 mi WNW 10.4 mph - N/A   Clear
2:15 AM 49.1 °F - 33.1 °F 54% 29.32 in 10.0 mi NW 15.0 mph - N/A   Clear
2:35 AM 50.5 °F - 36.3 °F 58% 29.32 in 10.0 mi NNW 15.0 mph - N/A   Scattered Clouds
2:55 AM 52.0 °F - 37.9 °F 59% 29.33 in 10.0 mi NW 15.0 mph - N/A   Scattered Clouds
3:15 AM 52.2 °F - 38.5 °F 60% 29.33 in 10.0 mi NW 10.4 mph - N/A   Mostly Cloudy
3:35 AM 47.7 °F - 37.4 °F 68% 29.33 in 10.0 mi West 9.2 mph - N/A   Scattered Clouds
3:55 AM 43.7 °F 38.1 °F 35.2 °F 72% 29.33 in 10.0 mi WSW 10.4 mph 16.1 mph N/A   Clear
4:15 AM 49.8 °F - 26.4 °F 40% 29.33 in 10.0 mi West 18.4 mph 24.2 mph N/A   Clear
4:35 AM 49.6 °F - 16.5 °F 27% 29.34 in 10.0 mi WNW 26.5 mph 33.4 mph N/A   Clear
4:55 AM 48.0 °F - 15.3 °F 27% 29.35 in 10.0 mi WNW 21.9 mph 32.2 mph N/A   Clear
5:35 AM 45.1 °F 37.9 °F 16.7 °F 32% 29.35 in 10.0 mi West 17.3 mph 24.2 mph N/A   Clear
5:55 AM 45.0 °F 37.4 °F 17.2 °F 33% 29.36 in 10.0 mi West 18.4 mph 23.0 mph N/A   Clear
6:15 AM 44.8 °F 36.9 °F 17.2 °F 33% 29.37 in 10.0 mi West 19.6 mph 25.3 mph N/A   Clear
6:55 AM - - - N/A% 29.38 in 10.0 mi West 24.2 mph 28.8 mph N/A   Clear
7:15 AM 45.1 °F 36.6 °F 21.9 °F 40% 29.39 in 10.0 mi West 23.0 mph 31.1 mph N/A   Clear
7:55 AM 45.5 °F 36.9 °F 28.8 °F 52% 29.42 in 10.0 mi WNW 24.2 mph 36.8 mph N/A   Clear
8:15 AM 46.4 °F 37.7 °F 31.1 °F 55% 29.46 in 10.0 mi WNW 26.5 mph 31.1 mph N/A   Clear
8:35 AM 46.6 °F - 31.1 °F 55% 29.48 in 10.0 mi WNW 25.3 mph 34.5 mph N/A   Clear
8:55 AM 46.8 °F - 30.9 °F 54% 29.49 in 10.0 mi WNW 24.2 mph 34.5 mph N/A   Clear
9:15 AM 47.3 °F - 31.3 °F 54% 29.49 in 10.0 mi NW 29.9 mph 42.6 mph N/A   Clear
9:35 AM 47.1 °F - 31.3 °F 54% 29.50 in 10.0 mi NW 23.0 mph 36.8 mph N/A   Clear
9:55 AM 47.3 °F - 31.8 °F 55% 29.52 in 10.0 mi WNW 21.9 mph 34.5 mph N/A   Clear
10:15 AM 47.7 °F - 32.2 °F 55% 29.52 in 10.0 mi WNW 19.6 mph 27.6 mph N/A   Clear
10:35 AM 48.2 °F - 32.9 °F 55% 29.53 in 10.0 mi WNW 23.0 mph 28.8 mph N/A   Clear
10:55 AM 49.1 °F - 33.4 °F 55% 29.54 in 10.0 mi NW 19.6 mph 26.5 mph N/A   Clear
11:15 AM 49.1 °F - 33.4 °F 55% 29.54 in 10.0 mi NW 18.4 mph - N/A   Clear
11:35 AM 50.0 °F - 33.6 °F 53% 29.54 in 10.0 mi WNW 19.6 mph 23.0 mph N/A   Clear
11:55 AM 50.5 °F - 33.3 °F 52% 29.53 in 10.0 mi NW 19.6 mph - N/A   Clear
12:15 PM 50.7 °F - 33.6 °F 52% 29.52 in 10.0 mi WNW 17.3 mph - N/A   Clear
12:35 PM 51.1 °F - 33.1 °F 50% 29.51 in 10.0 mi NW 18.4 mph - N/A   Clear
12:55 PM 52.5 °F - 33.4 °F 48% 29.51 in 10.0 mi WNW 16.1 mph 20.7 mph N/A   Clear
1:15 PM 52.7 °F - 33.1 °F 47% 29.51 in 10.0 mi NW 15.0 mph - N/A   Clear
1:35 PM 54.5 °F - 32.7 °F 44% 29.52 in 10.0 mi West 11.5 mph - N/A   Clear
1:55 PM 54.7 °F - 32.2 °F 42% 29.52 in 10.0 mi West 11.5 mph 18.4 mph N/A   Clear
2:15 PM 54.5 °F - 32.0 °F 42% 29.52 in 10.0 mi West 10.4 mph - N/A   Clear
2:35 PM 54.1 °F - 30.6 °F 41% 29.51 in 10.0 mi WSW 10.4 mph - N/A   Clear
2:55 PM 54.7 °F - 25.9 °F 33% 29.52 in 10.0 mi West 12.7 mph - N/A   Clear
3:15 PM 55.0 °F - 25.7 °F 32% 29.52 in 10.0 mi West 13.8 mph - N/A   Clear
3:35 PM 55.6 °F - 23.9 °F 29% 29.53 in 10.0 mi West 11.5 mph - N/A   Clear
3:55 PM 53.6 °F - 24.3 °F 32% 29.53 in 10.0 mi West 8.1 mph - N/A   Clear
4:15 PM 54.5 °F - 24.8 °F 32% 29.53 in 10.0 mi West 5.8 mph - N/A   Clear
4:35 PM 52.0 °F - 25.7 °F 36% 29.53 in 10.0 mi WSW 5.8 mph - N/A   Clear
4:55 PM 51.4 °F - 24.8 °F 35% 29.53 in 10.0 mi West 3.5 mph - N/A   Clear
5:15 PM 50.0 °F - 25.3 °F 38% 29.53 in 10.0 mi Calm Calm - N/A   Clear
5:35 PM 48.2 °F - 25.9 °F 42% 29.54 in 10.0 mi Calm Calm - N/A   Clear
5:55 PM 47.3 °F - 26.2 °F 44% 29.54 in 10.0 mi SSE 5.8 mph - N/A   Clear
6:15 PM 46.4 °F 44.3 °F 25.9 °F 45% 29.55 in 10.0 mi SE 4.6 mph - N/A   Clear
6:35 PM 45.5 °F 41.3 °F 26.1 °F 47% 29.55 in 10.0 mi SSE 8.1 mph - N/A   Clear
6:55 PM 47.1 °F - 25.7 °F 43% 29.55 in 10.0 mi South 6.9 mph - N/A   Clear
7:15 PM 47.3 °F - 26.1 °F 44% 29.55 in 10.0 mi South 6.9 mph - N/A   Clear
7:35 PM 45.9 °F 40.8 °F 26.6 °F 47% 29.56 in 10.0 mi SSW 10.4 mph - N/A   Clear
7:55 PM 45.7 °F 40.6 °F 26.6 °F 47% 29.56 in 10.0 mi SW 10.4 mph - N/A   Clear
8:15 PM 45.5 °F 40.8 °F 27.0 °F 48% 29.57 in 10.0 mi SW 9.2 mph - N/A   Scattered Clouds
8:55 PM 46.4 °F 41.5 °F 27.5 °F 48% 29.58 in 10.0 mi SW 10.4 mph - N/A   Mostly Cloudy
9:15 PM 47.3 °F - 27.5 °F 46% 29.58 in 10.0 mi SW 9.2 mph - N/A   Overcast
9:35 PM 46.6 °F - 27.7 °F 48% 29.58 in 10.0 mi SW 9.2 mph - N/A   Overcast
9:55 PM 45.7 °F 41.5 °F 27.5 °F 49% 29.58 in 10.0 mi SW 8.1 mph - N/A   Scattered Clouds
10:15 PM 47.5 °F - 27.3 °F 46% 29.58 in 10.0 mi SW 9.2 mph - N/A   Mostly Cloudy
10:55 PM 46.4 °F 41.1 °F 27.3 °F 47% 29.54 in 10.0 mi SW 11.5 mph - N/A   Mostly Cloudy
11:15 PM 46.4 °F 41.5 °F 27.1 °F 47% 29.54 in 10.0 mi SW 10.4 mph - N/A   Mostly Cloudy
11:35 PM 45.3 °F 40.6 °F 27.7 °F 50% 29.54 in 10.0 mi SW 9.2 mph - N/A   Scattered Clouds
11:55 PM 45.7 °F 42.0 °F 28.0 °F 50% 29.54 in 10.0 mi SW 6.9 mph - N/A   Mostly Cloudy